Regional Weather Roundup
Issued by NWS Raleigh/Durham, NC

Home | Current Version | Previous Version | Text Only | Print | Product List | Glossary On
Versions: 1 2 3 4 5 6 7 8 9 10 11 12 13 14 15 16 17 18 19 20 21 22 23 24 25 26 27 28 29 30 31 32 33 34 35 36 37 38 39 40 41 42 43 44 45 46 47 48 49 50
000
ASUS42 KRAH 011410
RWRRAH
NORTH CAROLINA WEATHER ROUNDUP
NATIONAL WEATHER SERVICE RALEIGH NC
1000 AM EDT SAT AUG 01 2015

NOTE: "FAIR" INDICATES FEW OR NO CLOUDS BELOW 12,000 FEET WITH NO
SIGNIFICANT WEATHER AND/OR OBSTRUCTIONS TO VISIBILITY.

NCZ001-053-055-056-065-067-011500-
WESTERN NORTH CAROLINA

CITY           SKY/WX    TMP DP  RH WIND       PRES   REMARKS
ASHEVILLE      SUNNY     75  58  55 N10       30.09S
JEFFERSON      SUNNY     71  53  53 W6        30.12S
MORGANTON      SUNNY     78  60  52 CALM      30.07S
HICKORY        SUNNY     79  60  52 N5        30.01S
RUTHERFORDTON  MOSUNNY   81  60  48 N5        30.03S
MOUNT AIRY     SUNNY     79  64  58 W3        30.02F
BOONE          SUNNY     70  54  57 NW9       30.12F
$$

NCZ021-022-025-041-071-084-088-011500-
CENTRAL NORTH CAROLINA

CITY           SKY/WX    TMP DP  RH WIND       PRES   REMARKS
CHARLOTTE      MOSUNNY   83  59  44 N7        30.00S
GREENSBORO     MOSUNNY   82  58  43 NW6       29.98S
WINSTON-SALEM  SUNNY     79  60  52 NW5       30.00S
RALEIGH-DURHAM MOSUNNY   81  64  56 CALM      29.96S
FORT BRAGG     SUNNY     86  64  46 VRB5      29.94S
FAYETTEVILLE   SUNNY     85  64  49 N8        29.94S
BURLINGTON     SUNNY     82  64  54 CALM      29.97S
LAURINBURG     SUNNY     87  60  40 N6        29.96R
$$

NCZ011-015-027-028-043-044-047-080-103-011500-
NORTHEASTERN NORTH CAROLINA

CITY           SKY/WX    TMP DP  RH WIND       PRES   REMARKS
ROCKY MT-WILSO SUNNY     85  65  51 CALM      29.94S
GREENVILLE     SUNNY     82  75  78 SE3       29.95S
WASHINGTON     MOSUNNY   81  76  84 CALM      29.94R
ELIZABETH CITY SUNNY     83  74  74 SW6       29.93S
MANTEO         CLOUDY    82  75  78 S10       29.93R
CAPE HATTERAS  CLOUDY    78  72  81 SE13      29.93S
$$

NCZ078-087-090-091-093-098-101-011500-
SOUTHEASTERN NORTH CAROLINA

CITY           SKY/WX    TMP DP  RH WIND       PRES   REMARKS
LUMBERTON      SUNNY     85  66  53 VRB3      29.94S
GOLDSBORO      SUNNY     81  74  79 VRB1      29.93R
KINSTON        SUNNY     82  73  74 CALM      29.95R
KENANSVILLE    MOSUNNY  N/A N/A N/A N5        29.95S
NEW BERN       MOSUNNY   83  75  77 W3        29.94R
CHERRY POINT   CLOUDY    80  77  90 SW6       29.94R
BEAUFORT       PTSUNNY   80  75  84 S5        29.92S
JACKSONVILLE   MOSUNNY   81  72  74 SE3       29.93S
WILMINGTON     PTSUNNY   81  75  82 VRB3      29.93R
$$



USA.gov is the U.S. government's official web portal to all federal, state and local government web resources and services.